Location: Biharia
(46.4333°N, 22.8000°E)
Time: 01:44:20
(UTC+00:00)

CZ-4 R/B - Pass Details

Date: 16 October 2021
Orbit: 531 x 595 km, 97.8° (Epoch: 02 December)

Event Time Altitude Azimuth Distance (km) Brightness Sun altitude
Rises 16:27:09 0° 140° (SE) 2,708 4.5 -8.8°
Reaches altitude 10° 16:29:24 10° 130° (SE) 1,829 3.6 -9.2°
Maximum altitude 16:32:53 30° 68° (ENE) 1,012 2.2 -9.8°
Drops below altitude 10° 16:36:27 10° 6° (N) 1,877 3.9 -10.4°
Sets 16:38:48 0° 356° (N) 2,791 4.9 -10.8°
